CSN672 XHPL-UHPP

Flight info

Callsign CSN672
Flight time N/A
Altitude 14000
Route ROGIT DCT GAKTA DCT NILUK W214 KULOD KULOD5N
Aircraft C208/L-SDFGR/C

Departure

Time N/A
Airport XHPL

Arrival

Time 2026-05-07 09:12
Airport Yelizovo Airport (UHPP)
Time Latitude Longitude Altitude Speed Heading
2026-05-07 07:50 56.17649 160.04722 12002 ft 188 kts 221°
2026-05-07 07:50 56.16639 160.03239 12001 ft 188 kts 221°
2026-05-07 07:50 56.15624 160.01753 12002 ft 187 kts 221°
2026-05-07 07:50 56.14606 160.00285 12001 ft 187 kts 220°
2026-05-07 07:51 56.13604 159.98832 11997 ft 187 kts 220°
2026-05-07 07:51 56.12593 159.97355 11998 ft 187 kts 221°
2026-05-07 07:51 56.11581 159.95890 11999 ft 187 kts 220°
2026-05-07 07:51 56.10563 159.94425 11997 ft 187 kts 221°
2026-05-07 07:52 56.09554 159.92952 11994 ft 187 kts 221°
2026-05-07 07:52 56.08545 159.91487 11993 ft 187 kts 221°
2026-05-07 07:52 56.07542 159.90039 11993 ft 187 kts 220°
2026-05-07 07:52 56.06530 159.88575 11991 ft 187 kts 221°
2026-05-07 07:53 56.05511 159.87105 11993 ft 187 kts 220°
2026-05-07 07:53 56.04501 159.85640 11988 ft 187 kts 220°
2026-05-07 07:53 56.03499 159.84190 11990 ft 187 kts 220°
2026-05-07 07:53 56.02486 159.82733 11989 ft 187 kts 220°
2026-05-07 07:54 56.01474 159.81275 11988 ft 186 kts 220°
2026-05-07 07:54 56.00462 159.79821 11989 ft 186 kts 221°
2026-05-07 07:54 55.99788 159.78855 11989 ft 186 kts 220°
2026-05-07 07:54 55.98452 159.76929 11986 ft 186 kts 221°
2026-05-07 07:55 55.97440 159.75472 11984 ft 186 kts 220°
2026-05-07 07:55 55.96770 159.74511 11982 ft 186 kts 221°
2026-05-07 07:55 55.95761 159.73061 11983 ft 186 kts 220°
2026-05-07 07:55 55.94422 159.71140 11985 ft 186 kts 220°
2026-05-07 07:56 55.93413 159.69693 11986 ft 186 kts 220°
2026-05-07 07:56 55.92403 159.68252 11986 ft 186 kts 220°
2026-05-07 07:56 55.91395 159.66811 11983 ft 186 kts 220°
2026-05-07 07:56 55.90388 159.65366 11983 ft 185 kts 220°
2026-05-07 07:57 55.89382 159.63929 11978 ft 185 kts 220°
2026-05-07 07:57 55.88372 159.62484 11983 ft 185 kts 220°
2026-05-07 07:57 55.87376 159.61064 11983 ft 185 kts 220°
2026-05-07 07:57 55.86367 159.59625 11981 ft 185 kts 220°
2026-05-07 07:58 55.85359 159.58187 11984 ft 185 kts 220°
2026-05-07 07:58 55.84355 159.56758 11986 ft 185 kts 220°
2026-05-07 07:58 55.83687 159.55808 11980 ft 185 kts 220°
2026-05-07 07:58 55.82342 159.53893 11988 ft 185 kts 220°
2026-05-07 07:59 55.81351 159.52485 11985 ft 185 kts 220°
2026-05-07 07:59 55.80669 159.51517 11984 ft 185 kts 220°
2026-05-07 07:59 55.79664 159.50090 11984 ft 185 kts 220°
2026-05-07 07:59 55.78670 159.48678 11981 ft 185 kts 220°
2026-05-07 08:00 55.77666 159.47254 11980 ft 185 kts 220°
2026-05-07 08:00 55.76658 159.45825 11986 ft 184 kts 220°
2026-05-07 08:00 55.75654 159.44403 11985 ft 184 kts 220°
2026-05-07 08:00 55.74650 159.42982 11980 ft 184 kts 220°
2026-05-07 08:01 55.73646 159.41564 11981 ft 184 kts 220°
2026-05-07 08:01 55.72645 159.40149 11988 ft 184 kts 220°
2026-05-07 08:01 55.71642 159.38733 11986 ft 184 kts 220°
2026-05-07 08:01 55.70643 159.37323 11983 ft 184 kts 220°
2026-05-07 08:02 55.69648 159.35920 11982 ft 184 kts 220°
2026-05-07 08:02 55.68642 159.34502 11989 ft 184 kts 220°
2026-05-07 08:02 55.67644 159.33095 11983 ft 184 kts 220°
2026-05-07 08:02 55.66640 159.31682 11984 ft 183 kts 220°
2026-05-07 08:03 55.65655 159.30296 11980 ft 183 kts 220°
2026-05-07 08:03 55.64655 159.28891 11981 ft 183 kts 220°
2026-05-07 08:03 55.63654 159.27487 11979 ft 183 kts 220°
2026-05-07 08:03 55.62657 159.26086 11985 ft 183 kts 220°
2026-05-07 08:04 55.61658 159.24684 11981 ft 183 kts 220°
2026-05-07 08:04 55.60651 159.23272 11982 ft 183 kts 220°
2026-05-07 08:04 55.59651 159.21873 11980 ft 183 kts 220°
2026-05-07 08:04 55.58662 159.20486 11977 ft 183 kts 220°
2026-05-07 08:05 55.57662 159.19088 11977 ft 183 kts 220°
2026-05-07 08:05 55.56657 159.17684 11980 ft 183 kts 220°
2026-05-07 08:05 55.55655 159.16282 11980 ft 183 kts 220°
2026-05-07 08:05 55.54670 159.14908 11982 ft 183 kts 220°
2026-05-07 08:06 55.53668 159.13511 11977 ft 183 kts 220°
2026-05-07 08:06 55.52666 159.12113 11978 ft 183 kts 220°
2026-05-07 08:06 55.51666 159.10720 11978 ft 183 kts 220°
2026-05-07 08:06 55.50666 159.09327 11974 ft 183 kts 219°
2026-05-07 08:07 55.49679 159.07954 11979 ft 183 kts 219°
2026-05-07 08:07 55.48675 159.06555 11980 ft 183 kts 219°
2026-05-07 08:07 55.47670 159.05158 11978 ft 184 kts 219°
2026-05-07 08:07 55.46667 159.03766 11977 ft 184 kts 219°
2026-05-07 08:08 55.45658 159.02366 11979 ft 183 kts 219°
2026-05-07 08:08 55.44668 159.00994 11973 ft 183 kts 219°
2026-05-07 08:08 55.43667 158.99606 11978 ft 183 kts 219°
2026-05-07 08:08 55.42667 158.98221 11975 ft 182 kts 219°
2026-05-07 08:09 55.41670 158.96840 11975 ft 182 kts 219°
2026-05-07 08:09 55.40673 158.95462 11976 ft 182 kts 219°
2026-05-07 08:09 55.39678 158.94086 11978 ft 182 kts 219°
2026-05-07 08:09 55.38694 158.92727 11976 ft 182 kts 219°
2026-05-07 08:10 55.37697 158.91350 11977 ft 182 kts 219°
2026-05-07 08:10 55.36701 158.89977 11977 ft 182 kts 219°
2026-05-07 08:10 55.35711 158.88610 11979 ft 181 kts 219°
2026-05-07 08:10 55.34712 158.87236 11977 ft 181 kts 219°
2026-05-07 08:11 55.33720 158.85869 11975 ft 181 kts 219°
2026-05-07 08:11 55.32727 158.84502 11974 ft 181 kts 219°
2026-05-07 08:11 55.31730 158.83131 11975 ft 181 kts 219°
2026-05-07 08:11 55.30752 158.81787 11978 ft 181 kts 219°
2026-05-07 08:12 55.29757 158.80421 11976 ft 181 kts 219°
2026-05-07 08:12 55.28761 158.79054 11974 ft 181 kts 219°
2026-05-07 08:12 55.27765 158.77687 11975 ft 180 kts 219°
2026-05-07 08:12 55.26776 158.76332 11978 ft 180 kts 219°
2026-05-07 08:13 55.25786 158.74977 11973 ft 180 kts 219°
2026-05-07 08:13 55.24794 158.73619 11974 ft 180 kts 219°
2026-05-07 08:13 55.23816 158.72282 11974 ft 180 kts 219°
2026-05-07 08:13 55.22826 158.70927 11975 ft 180 kts 219°
2026-05-07 08:14 55.21833 158.69569 11973 ft 180 kts 219°
2026-05-07 08:14 55.20842 158.68216 11970 ft 181 kts 219°
2026-05-07 08:14 55.19850 158.66863 11972 ft 181 kts 219°
2026-05-07 08:14 55.18863 158.65517 11971 ft 181 kts 219°
2026-05-07 08:15 55.17869 158.64162 11971 ft 181 kts 219°
2026-05-07 08:15 55.16877 158.62812 11975 ft 181 kts 219°
2026-05-07 08:15 55.15876 158.61449 11975 ft 181 kts 219°
2026-05-07 08:15 55.14887 158.60101 11978 ft 182 kts 219°
2026-05-07 08:16 55.13883 158.58737 11975 ft 182 kts 219°
2026-05-07 08:16 55.12786 158.57656 11973 ft 184 kts 197°
2026-05-07 08:16 55.11509 158.57428 11980 ft 185 kts 183°
2026-05-07 08:16 55.10220 158.57372 11980 ft 185 kts 184°
2026-05-07 08:17 55.08933 158.57290 11980 ft 185 kts 184°
2026-05-07 08:17 55.07656 158.57212 11978 ft 185 kts 184°
2026-05-07 08:17 55.06366 158.57137 11975 ft 185 kts 184°
2026-05-07 08:17 55.05074 158.57062 11978 ft 185 kts 184°
2026-05-07 08:18 55.03780 158.56985 11976 ft 185 kts 184°
2026-05-07 08:18 55.02496 158.56910 11974 ft 185 kts 184°
2026-05-07 08:18 55.01203 158.56833 11974 ft 185 kts 184°
2026-05-07 08:18 54.99912 158.56757 11972 ft 185 kts 184°
2026-05-07 08:19 54.98627 158.56680 11972 ft 185 kts 184°
2026-05-07 08:19 54.97342 158.56605 11973 ft 185 kts 184°
2026-05-07 08:19 54.96073 158.56530 11973 ft 185 kts 184°
2026-05-07 08:19 54.94784 158.56456 11971 ft 185 kts 184°
2026-05-07 08:20 54.93498 158.56380 11971 ft 185 kts 184°
2026-05-07 08:20 54.92211 158.56304 11974 ft 184 kts 184°
2026-05-07 08:20 54.90936 158.56230 11974 ft 184 kts 184°
2026-05-07 08:20 54.89647 158.56154 11974 ft 184 kts 184°
2026-05-07 08:21 54.88361 158.56079 11975 ft 184 kts 184°
2026-05-07 08:21 54.87076 158.56004 11971 ft 184 kts 184°
2026-05-07 08:21 54.85803 158.55928 11974 ft 185 kts 184°
2026-05-07 08:21 54.84517 158.55853 11972 ft 185 kts 184°
2026-05-07 08:22 54.83228 158.55778 11972 ft 184 kts 184°
2026-05-07 08:22 54.81945 158.55703 11974 ft 184 kts 184°
2026-05-07 08:22 54.80656 158.55628 11973 ft 185 kts 184°
2026-05-07 08:22 54.79382 158.55554 11974 ft 185 kts 184°
2026-05-07 08:23 54.78099 158.55479 11972 ft 185 kts 184°
2026-05-07 08:23 54.76804 158.55403 11975 ft 185 kts 184°
2026-05-07 08:23 54.75510 158.55328 11977 ft 185 kts 184°
2026-05-07 08:23 54.74233 158.55254 11977 ft 186 kts 185°
2026-05-07 08:24 54.72936 158.55177 11978 ft 186 kts 185°
2026-05-07 08:24 54.71639 158.55102 11974 ft 186 kts 185°
2026-05-07 08:24 54.70359 158.55029 11976 ft 186 kts 185°
2026-05-07 08:24 54.69067 158.54953 11974 ft 186 kts 185°
2026-05-07 08:25 54.67774 158.54878 11978 ft 185 kts 185°
2026-05-07 08:25 54.66486 158.54797 11979 ft 185 kts 185°
2026-05-07 08:25 54.65196 158.54713 11977 ft 185 kts 185°
2026-05-07 08:25 54.63906 158.54630 11976 ft 185 kts 185°
2026-05-07 08:26 54.61340 158.54466 11981 ft 184 kts 185°
2026-05-07 08:26 54.60055 158.54384 11979 ft 184 kts 185°
2026-05-07 08:26 54.58769 158.54302 11982 ft 184 kts 185°
2026-05-07 08:27 54.57500 158.54220 11979 ft 184 kts 185°
2026-05-07 08:27 54.56213 158.54139 11979 ft 184 kts 186°
2026-05-07 08:27 54.54923 158.54057 11979 ft 184 kts 186°
2026-05-07 08:27 54.53640 158.53975 11983 ft 185 kts 186°
2026-05-07 08:28 54.52352 158.53893 11982 ft 185 kts 186°
2026-05-07 08:28 54.51081 158.53812 11982 ft 184 kts 186°
2026-05-07 08:28 54.49791 158.53730 11985 ft 184 kts 186°
2026-05-07 08:28 54.48508 158.53649 11981 ft 185 kts 186°
2026-05-07 08:29 54.47232 158.53569 11982 ft 185 kts 186°
2026-05-07 08:29 54.45943 158.53488 11985 ft 185 kts 186°
2026-05-07 08:29 54.44651 158.53406 11984 ft 185 kts 186°
2026-05-07 08:29 54.43360 158.53325 11985 ft 185 kts 186°
2026-05-07 08:30 54.42071 158.53243 11986 ft 185 kts 186°
2026-05-07 08:30 54.40780 158.53162 11987 ft 185 kts 186°
2026-05-07 08:30 54.39487 158.53080 11989 ft 186 kts 186°
2026-05-07 08:30 54.38212 158.52999 11988 ft 186 kts 186°
2026-05-07 08:31 54.36908 158.52916 11987 ft 186 kts 186°
2026-05-07 08:31 54.35612 158.52835 11989 ft 185 kts 186°
2026-05-07 08:31 54.34320 158.52754 11989 ft 185 kts 187°
2026-05-07 08:31 54.33027 158.52674 11990 ft 185 kts 187°
2026-05-07 08:32 54.31752 158.52593 11993 ft 185 kts 187°
2026-05-07 08:32 54.30458 158.52512 11992 ft 185 kts 187°
2026-05-07 08:32 54.29587 158.52457 11993 ft 186 kts 187°
2026-05-07 08:32 54.28305 158.52377 11993 ft 186 kts 187°
2026-05-07 08:33 54.27007 158.52295 11992 ft 187 kts 187°
2026-05-07 08:33 54.25269 158.52186 11985 ft 187 kts 187°
2026-05-07 08:33 54.23963 158.52104 11991 ft 188 kts 187°
2026-05-07 08:33 54.22660 158.52022 11989 ft 187 kts 187°
2026-05-07 08:34 54.21366 158.51941 11991 ft 187 kts 187°
2026-05-07 08:34 54.20063 158.51861 11991 ft 187 kts 187°
2026-05-07 08:34 54.18767 158.51779 11992 ft 187 kts 187°
2026-05-07 08:34 54.17885 158.51725 11990 ft 187 kts 187°
2026-05-07 08:35 54.16589 158.51645 11992 ft 187 kts 187°
2026-05-07 08:35 54.15305 158.51564 11995 ft 187 kts 187°
2026-05-07 08:35 54.13996 158.51484 11995 ft 187 kts 187°
2026-05-07 08:35 54.12683 158.51403 11991 ft 187 kts 187°
2026-05-07 08:36 54.11381 158.51321 11991 ft 187 kts 187°
2026-05-07 08:36 54.10095 158.51240 11990 ft 187 kts 187°
2026-05-07 08:36 54.08785 158.51160 11993 ft 187 kts 188°
2026-05-07 08:36 54.07494 158.51080 11992 ft 188 kts 188°
2026-05-07 08:37 54.06179 158.50997 11992 ft 188 kts 188°
2026-05-07 08:37 54.04874 158.50916 11996 ft 188 kts 188°
2026-05-07 08:37 54.03559 158.50836 11996 ft 188 kts 188°
2026-05-07 08:37 54.02254 158.50754 11995 ft 188 kts 188°
2026-05-07 08:38 54.00943 158.50673 11998 ft 188 kts 188°
2026-05-07 08:38 53.99650 158.50593 11998 ft 188 kts 188°
2026-05-07 08:38 53.98316 158.50512 11996 ft 188 kts 188°
2026-05-07 08:38 53.97015 158.50430 11998 ft 187 kts 188°
2026-05-07 08:39 53.95732 158.50347 11997 ft 187 kts 188°
2026-05-07 08:39 53.94426 158.50264 11997 ft 188 kts 188°
2026-05-07 08:39 53.93113 158.50178 11998 ft 188 kts 188°
2026-05-07 08:39 53.91801 158.50092 11999 ft 188 kts 188°
2026-05-07 08:40 53.90488 158.50008 12000 ft 189 kts 188°
2026-05-07 08:40 53.89175 158.49925 12000 ft 189 kts 188°
2026-05-07 08:40 53.87858 158.49841 11999 ft 189 kts 189°
2026-05-07 08:40 53.86540 158.49756 12003 ft 189 kts 189°
2026-05-07 08:41 53.85247 158.49673 12003 ft 188 kts 189°
2026-05-07 08:41 53.83930 158.49590 12005 ft 189 kts 189°
2026-05-07 08:41 53.82608 158.49506 12004 ft 189 kts 189°
2026-05-07 08:41 53.81294 158.49421 12006 ft 189 kts 189°
2026-05-07 08:42 53.79975 158.49336 12008 ft 189 kts 189°
2026-05-07 08:42 53.78653 158.49251 12005 ft 190 kts 189°
2026-05-07 08:42 53.77328 158.49168 12008 ft 190 kts 189°
2026-05-07 08:42 53.76017 158.49085 12008 ft 190 kts 189°
2026-05-07 08:43 53.74690 158.48999 12015 ft 189 kts 189°
2026-05-07 08:43 53.73370 158.48914 12010 ft 190 kts 189°
2026-05-07 08:43 53.72049 158.48831 12012 ft 190 kts 189°
2026-05-07 08:43 53.70722 158.48795 12009 ft 193 kts 182°
2026-05-07 08:44 53.69390 158.49278 12013 ft 196 kts 173°
2026-05-07 08:44 53.68063 158.49792 12011 ft 196 kts 175°
2026-05-07 08:44 53.66746 158.50273 12015 ft 195 kts 175°
2026-05-07 08:44 53.65419 158.50764 12015 ft 195 kts 175°
2026-05-07 08:45 53.64083 158.51265 12014 ft 196 kts 174°
2026-05-07 08:45 53.62751 158.51763 12016 ft 196 kts 175°
2026-05-07 08:45 53.61411 158.52259 12013 ft 195 kts 175°
2026-05-07 08:45 53.60101 158.52749 12019 ft 196 kts 175°
2026-05-07 08:46 53.58759 158.53249 12019 ft 196 kts 175°
2026-05-07 08:46 53.57425 158.53744 12020 ft 196 kts 175°
2026-05-07 08:46 53.56084 158.54243 12020 ft 195 kts 175°
2026-05-07 08:46 53.54758 158.54735 12019 ft 195 kts 175°
2026-05-07 08:47 53.53445 158.55223 12017 ft 196 kts 175°
2026-05-07 08:47 53.52111 158.55720 12024 ft 196 kts 175°
2026-05-07 08:47 53.50783 158.56211 12028 ft 196 kts 175°
2026-05-07 08:47 53.49448 158.56705 12025 ft 196 kts 175°
2026-05-07 08:48 53.48112 158.57199 12028 ft 196 kts 175°
2026-05-07 08:48 53.46781 158.57693 12028 ft 195 kts 175°
2026-05-07 08:48 53.45471 158.58179 12027 ft 194 kts 175°
2026-05-07 08:48 53.44141 158.58671 12028 ft 196 kts 175°
2026-05-07 08:49 53.42806 158.59163 12029 ft 196 kts 175°
2026-05-07 08:49 53.41465 158.59655 12029 ft 197 kts 175°
2026-05-07 08:49 53.40124 158.60151 12027 ft 198 kts 175°
2026-05-07 08:49 53.38782 158.60646 12033 ft 197 kts 175°
2026-05-07 08:50 53.37439 158.61141 12008 ft 198 kts 176°
2026-05-07 08:50 53.36094 158.61636 12006 ft 198 kts 176°
2026-05-07 08:50 53.34753 158.62130 12005 ft 197 kts 176°
2026-05-07 08:50 53.33409 158.62623 12002 ft 198 kts 176°
2026-05-07 08:51 53.32063 158.63119 12003 ft 198 kts 175°
2026-05-07 08:51 53.30710 158.63616 12002 ft 198 kts 176°
2026-05-07 08:51 53.29379 158.64105 12000 ft 198 kts 176°
2026-05-07 08:51 53.28030 158.64600 11999 ft 198 kts 176°
2026-05-07 08:52 53.26684 158.65093 11998 ft 198 kts 176°
2026-05-07 08:52 53.25335 158.65587 11991 ft 197 kts 176°
2026-05-07 08:52 53.23994 158.66078 11995 ft 197 kts 176°
2026-05-07 08:52 53.22667 158.66564 11993 ft 197 kts 176°
2026-05-07 08:53 53.21323 158.67056 11997 ft 197 kts 176°
2026-05-07 08:53 53.19983 158.67545 11995 ft 197 kts 176°
2026-05-07 08:53 53.18637 158.68036 11995 ft 197 kts 176°
2026-05-07 08:53 53.17294 158.68526 11995 ft 197 kts 176°
2026-05-07 08:54 53.15965 158.69010 11996 ft 197 kts 176°
2026-05-07 08:54 53.14630 158.69498 11994 ft 197 kts 176°
2026-05-07 08:54 53.13314 158.70259 11997 ft 202 kts 165°
2026-05-07 08:54 53.12020 158.71181 11994 ft 200 kts 165°
2026-05-07 08:55 53.10746 158.72066 11784 ft 197 kts 166°
2026-05-07 08:55 53.09493 158.72919 11452 ft 190 kts 166°
2026-05-07 08:55 53.08297 158.73736 11131 ft 181 kts 166°
2026-05-07 08:55 53.07155 158.74514 10796 ft 174 kts 166°
2026-05-07 08:56 53.06045 158.75269 10485 ft 171 kts 166°
2026-05-07 08:56 53.04953 158.76012 10175 ft 168 kts 166°
2026-05-07 08:56 53.03884 158.76743 9872 ft 167 kts 165°
2026-05-07 08:56 53.02794 158.77488 9567 ft 167 kts 165°
2026-05-07 08:57 53.01736 158.78210 9243 ft 167 kts 165°
2026-05-07 08:57 53.00664 158.78939 8915 ft 166 kts 165°
2026-05-07 08:57 52.99596 158.79663 8587 ft 165 kts 165°
2026-05-07 08:57 52.98526 158.80330 8259 ft 161 kts 176°
2026-05-07 08:58 52.97458 158.80286 7925 ft 148 kts 205°
2026-05-07 08:58 52.96569 158.79605 7605 ft 136 kts 227°
2026-05-07 08:58 52.95944 158.78515 7296 ft 129 kts 246°
2026-05-07 08:58 52.95583 158.77201 6986 ft 122 kts 257°
2026-05-07 08:59 52.95268 158.75920 6751 ft 118 kts 256°
2026-05-07 08:59 52.94957 158.74670 6519 ft 116 kts 256°
2026-05-07 08:59 52.94649 158.73427 6294 ft 116 kts 256°
2026-05-07 08:59 52.94337 158.72210 6098 ft 113 kts 258°
2026-05-07 09:00 52.94053 158.71038 5916 ft 109 kts 257°
2026-05-07 09:00 52.93763 158.69861 5716 ft 111 kts 257°
2026-05-07 09:00 52.93470 158.68684 5532 ft 109 kts 257°
2026-05-07 09:00 52.93182 158.67532 5346 ft 107 kts 257°
2026-05-07 09:01 52.92896 158.66388 5149 ft 106 kts 257°
2026-05-07 09:01 52.92615 158.65261 4970 ft 105 kts 257°
2026-05-07 09:01 52.92340 158.64163 4783 ft 104 kts 257°
2026-05-07 09:01 52.92159 158.63042 4590 ft 97 kts 278°
2026-05-07 09:02 52.92436 158.62055 4397 ft 100 kts 310°
2026-05-07 09:02 52.93093 158.61544 4217 ft 104 kts 322°
2026-05-07 09:02 52.93761 158.61034 4030 ft 106 kts 324°
2026-05-07 09:02 52.94440 158.60544 3842 ft 107 kts 326°
2026-05-07 09:03 52.95132 158.60067 3655 ft 107 kts 326°
2026-05-07 09:03 52.95814 158.59597 3473 ft 108 kts 326°
2026-05-07 09:03 52.96513 158.59115 3290 ft 108 kts 326°
2026-05-07 09:03 52.97205 158.58639 3110 ft 108 kts 326°
2026-05-07 09:04 52.97869 158.58188 3091 ft 99 kts 325°
2026-05-07 09:04 52.98491 158.57761 3093 ft 94 kts 325°
2026-05-07 09:04 52.99088 158.57348 3088 ft 90 kts 324°
2026-05-07 09:04 52.99659 158.56952 3093 ft 88 kts 324°
2026-05-07 09:05 53.00218 158.56565 3094 ft 86 kts 324°
2026-05-07 09:05 53.00586 158.56310 3090 ft 87 kts 324°
2026-05-07 09:05 53.01377 158.55752 2975 ft 98 kts 326°
2026-05-07 09:05 53.02023 158.55305 2850 ft 102 kts 328°
2026-05-07 09:06 53.02688 158.54851 2714 ft 105 kts 328°
2026-05-07 09:06 53.03377 158.54377 2583 ft 108 kts 328°
2026-05-07 09:06 53.04076 158.53898 2438 ft 109 kts 328°
2026-05-07 09:06 53.04781 158.53414 2300 ft 110 kts 328°
2026-05-07 09:07 53.05489 158.52927 2158 ft 110 kts 329°
2026-05-07 09:07 53.06192 158.52443 2017 ft 111 kts 329°
2026-05-07 09:07 53.06908 158.51948 1871 ft 112 kts 328°
2026-05-07 09:07 53.07629 158.51450 1711 ft 112 kts 329°
2026-05-07 09:08 53.08353 158.50949 1554 ft 113 kts 330°
2026-05-07 09:08 53.08837 158.50613 1451 ft 114 kts 331°
2026-05-07 09:08 53.09575 158.50107 1299 ft 116 kts 333°
2026-05-07 09:08 53.10303 158.49628 1158 ft 103 kts 333°
2026-05-07 09:09 53.10928 158.49213 1041 ft 88 kts 333°
2026-05-07 09:09 53.11456 158.48842 929 ft 78 kts 333°
2026-05-07 09:09 53.11951 158.48502 852 ft 74 kts 331°
2026-05-07 09:09 53.12425 158.48178 763 ft 74 kts 331°
2026-05-07 09:10 53.12886 158.47852 673 ft 71 kts 331°
2026-05-07 09:10 53.13336 158.47550 560 ft 69 kts 333°
2026-05-07 09:10 53.13774 158.47285 473 ft 66 kts 329°
2026-05-07 09:10 53.14202 158.46955 456 ft 69 kts 330°
2026-05-07 09:11 53.14658 158.46619 375 ft 72 kts 330°
2026-05-07 09:11 53.15135 158.46328 292 ft 75 kts 331°
2026-05-07 09:11 53.15617 158.45978 181 ft 73 kts 328°
2026-05-07 09:11 53.16067 158.45664 133 ft 67 kts 331°
2026-05-07 09:12 53.16483 158.45375 124 ft 61 kts 331°
2026-05-07 09:12 53.16825 158.45125 126 ft 45 kts 337°
2026-05-07 09:12 53.17032 158.44988 126 ft 22 kts 336°
2026-05-07 09:12 53.17141 158.44913 126 ft 12 kts 339°
2026-05-07 09:13 53.17196 158.44877 127 ft 5 kts 339°
2026-05-07 09:13 53.17224 158.44859 128 ft 7 kts 339°
2026-05-07 09:13 53.17295 158.44809 127 ft 16 kts 337°
2026-05-07 09:13 53.17451 158.44688 128 ft 33 kts 339°
2026-05-07 09:14 53.17569 158.44491 129 ft 22 kts 253°
2026-05-07 09:14 53.17508 158.44215 125 ft 27 kts 247°
2026-05-07 09:14 53.17414 158.43894 124 ft 33 kts 239°
2026-05-07 09:14 53.17295 158.43553 126 ft 36 kts 239°
2026-05-07 09:15 53.17165 158.43184 124 ft 37 kts 239°
2026-05-07 09:15 53.17074 158.42941 128 ft 10 kts 247°
2026-05-07 09:15 53.17027 158.42801 127 ft 10 kts 212°
2026-05-07 09:15 53.16959 158.42777 128 ft 11 kts 226°
2026-05-07 09:16 53.16931 158.42713 128 ft 4 kts 240°
2026-05-07 09:16 53.16925 158.42697 128 ft 1 kts 236°
2026-05-07 09:16 53.16921 158.42688 128 ft 1 kts 237°